Weather Service Report


953 
ASUS45 KSLC 262210
RWRUT 

UTAH REGIONAL WEATHER ROUNDUP
NATIONAL WEATHER SERVICE SALT LAKE CITY UT
400 PM MDT SUN MAR 26 2017

UTZ001>011-023>025-262300-

NORTHERN UTAH
  
CITY           SKY/WX    TMP DP  RH WIND       PRES   REMARKS
BRIGHAM CITY     N/A     51  26  38 S5        30.00F                  
HILL AFB       CLOUDY    49  26  40 SW7       29.99F                  
LOGAN          CLOUDY    52  28  39 CALM      29.98F                  
OGDEN          CLOUDY    50  30  46 S5        29.99F                  
SALT LAKE CITY CLOUDY    53  27  36 VRB3      29.98F                  
WENDOVER       PTSUNNY   57  29  34 SE18      29.95F                  
HEBER CITY     CLOUDY    50  27  40 SW10      29.98F                  

$$

UTZ011>015-024>027-262300-

CENTRAL/NORTHEAST UTAH
  
CITY           SKY/WX    TMP DP  RH WIND       PRES   REMARKS
PROVO AIRPORT  CLOUDY    51  21  30 SW3       30.02F                  
MOAB/CANYONLAN SUNNY     60  22  23 CALM      29.93S                  
DELTA          CLOUDY    50  28  43 S3        30.02F                  
PRICE          PTSUNNY   53  18  25 MISG      29.97S                  
RICHFIELD      SUNNY     52  27  37 CALM      30.02                   
ROOSEVELT      CLOUDY    54  28  37 E6        29.99S                  
VERNAL         CLOUDY    53  30  41 CALM      29.96F                  

$$

UTZ013>016-019>022-027-262300-

SOUTHERN UTAH
  
CITY           SKY/WX    TMP DP  RH WIND       PRES   REMARKS
BRYCE CANYON   MOSUNNY   50  15  24 VRB5      30.03F                  
CEDAR CITY     PTSUNNY   54  27  35 NW6       30.02F                  
MILFORD        CLOUDY    52  24  33 SE5       30.00F                  
ST GEORGE      CLOUDY    66  29  24 VRB3      29.97F                  
HANKSVILLE     MOSUNNY   61  16  17 SE5       29.96F                  
KANAB          MOSUNNY   61  21  21 S10       30.02                   
BLANDING       PTSUNNY   58  28  31 SW12      30.03F                  

$$

REGIONAL REPORTS     COLORADO/ARIZONA
  
CITY           SKY/WX    TMP DP  RH WIND       PRES   REMARKS
CRAIG, CO      CLOUDY    49  21  33 W7        29.97F                  
GRAND JUNCTION MOSUNNY   61  28  28 NW7       29.92F                  
RIFLE, CO      CLOUDY    57  24  28 VRB7      29.94F                  
MONTROSE, CO   CLOUDY    54  33  45 S12G18    29.97F                  
CORTEZ, CO     SUNNY     58  33  39 W10G16    29.96F                  
COLORADO CITY    N/A     61  30  31 NW10      30.04F                  
PAGE, AZ       MOSUNNY   63  38  39 VRB6      29.96F                  
GRAND CANYON   MOSUNNY   55  17  22 SW8       30.05S                  
KINGMAN, AZ    SUNNY     68  14  12 VRB5      29.98F                  
FLAGSTAFF, AZ  SUNNY     55  10  16 W12G20    30.03F                  

$$

REGIONAL REPORTS    NEVADA/IDAHO/WYOMING
  
CITY           SKY/WX    TMP DP  RH WIND       PRES   REMARKS
LAS VEGAS, NV  MOSUNNY   73  31  21 E10       29.91F                  
ELY, NY        CLOUDY    49  27  42 S9        29.98F                  
ELKO, NV       CLOUDY    53  21  28 SW14G28   29.93F                  
POCATELLO, ID  CLOUDY    52  32  46 S16       29.95F                  
BURLEY, ID     PTSUNNY   56  25  30 S14G21    29.90F                  
FORT BRIDGER,    N/A     45  22  40 NW8       30.01F                  
EVANSTON, WY   CLOUDY    43  22  43 W14G21    30.00F                  
ROCK SPRINGS,  SUNNY     46  17  31 W8        29.97F                  
KEMMERER, WY     N/A     37  25  60 W13G18    30.00F WCI  29          

$$
  

Return to Home page


Western Regional Climate Center, wrcc@dri.edu